Погода в Увальном

Россия / Приморский край     45°02′56″N   133°28′24″E
темп.,
°C
ветер,
м/с
пор.,
м/с
влажн.,
%
обл.,
%
осадки,
мм/ч
давл.,
гПа
погр.,
м
5 августа, чт
чт501:00+22ююз2274100 0.0 100517
04:00+21ююв238148 0.0 100543
07:00+22юв237873 0.0 100589
10:00+29ююз245464 0.0 1004864
13:00+34ююз363758 0.0 10022541
16:00+35юз4633100 0.0 10002380
19:00+32зсз344178 0.1 1000809
22:00+25юз1167100 0.3 100113
6 августа, пт
пт601:00+22ююз128393 0.2 100212
04:00+21ю2292100 0.5 100217
07:00+21юз249890 1.9 1003161
10:00+24ссз3475100 2.2 1004643
13:00+29ссз1154100 0.1 10031145
16:00+31зюз244562 0.1 10011955
19:00+28ссз235895 0.1 1001236
22:00+24юв2283100 0.6 100241
7 августа, сб
сб701:00+23ююв2292100 0.6 100325
04:00+22юв2394100 1.5 100347
07:00+22ссв1193100 2.1 100412
10:00+22в2394100 4.9 1005109
13:00+21св2294100 2.4 100662
16:00+28вюв22595 2.8 1005889
19:00+27св336452 0.3 1005284
22:00+21вюв2294100 7.6 100730
8 августа, вс
вс801:00+20юв1196100 3.6 100824
04:00+20св1196100 3.9 100820
07:00+20в119768 3.4 100957
10:00+23всв128480 3.8 1010589
13:00+24св1280100 1.7 1010593
16:00+24в2282100 8.4 1009258
19:00+23вюв2388100 3.8 101059
22:00+19вюв239399 4.1 101141
9 августа, пн
пн901:00+18вюв2392100 0.0 101266
04:00+17юв1290100 0.0 101254
07:00+17с1189100 0.0 101385
10:00+17ссз1187100 0.1 1014227
13:00+20ссз2171100 0.0 1013672
16:00+23ссв22654 0.0 1012823
19:00+23ссв12725 0.0 1012241
22:00+18св228712 0.0 101318